RH
19 20 22 24 26 29 31 30 30 30 30 28 26 26 27 28 29 30 31 32 33 34
22 25 27 29 30 31 33 33 32 32 32 32 30 28 28 28 29 29 30 31 32 34
30 32 34 34 35 35 36 37 36 35 36 37 37 36 34 33 33 32 32 33 34 35
35 36 37 38 40 40 40 41 42 42 42 43 45 46 45 44 42 41 39 38 38 39
38 39 41 44 47 47 46 47 48 48 48 49 51 52 52 52 51 50 49 47 46 46
41 44 47 50 51 53 53 53 53 55 56 56 57 58 59 58 58 58 57 55 54 54
49 51 54 56 58 59 60 61 62 62 64 65 66 66 67 65 65 65 65 66 64 63
57 59 62 64 66 67 68 70 70 71 71 71 73 74 74 72 71 71 71 72 72 70
64 66 68 69 71 72 73 74 75 77 79 80 79 80 81 80 78 77 76 77 78 74
73 73 73 73 75 78 79 80 82 84 83 83 85 87 89 90 88 85 86 85 83 83
66 66 68 68 68 69 71 72 73 75 78 80 83 86 88 92 92 90 88 89 89 88
50 49 49 49 49 49 48 49 51 55 60 63 66 67 71 75 78 78 79 79 84 86
43 42 41 40 39 37 35 35 35 34 35 36 39 42 46 50 56 63 64 70 73 79
42 41 40 38 37 34 32 29 27 26 25 25 26 26 29 31 37 43 44 47 55 62